Flag for France Weather past 2 weeks in Rodez, France

Now
57 °F

Fog.


Feels Like: 57 °F
Forecast: 51 / 70 °F
Wind: 2 mph from South

Location: Rodez Airport

Current Time: Oct 1, 2014 at 12:21:35 AM

Latest Report: Oct 1, 2014 at 12:00 AM


Visibility: 2 mi

Pressure: 30.33 "Hg

Humidity: 100%

Dew point: 57 °F

Location of RodezLocation

Historic Weather in Rodez — Graph

°F

Rodez temperature yesterday

Maximum temperature yesterday: 68 °F (at 4:00 PM)
Minimum temperature yesterday: 59 °F (at 4:30 AM)
Average temperature yesterday: 62 °F

Past Weeks' High & Low Weather Summary

 TemperatureHumidityPressure
High77 °F (Sep 19, 3:30 PM)100% (Sep 20, 7:30 AM)30.33 "Hg (Sep 20, 7:30 AM)
Low36 °F (Sep 26, 8:00 AM)33% (Sep 23, 4:30 PM)29.80 "Hg (Sep 17, 6:00 AM)
Average61 °F75%30.09 "Hg
* Reported Sep 15 10:00 PM — Sep 30 10:30 PM, Rodez, Weather by CustomWeather, © 2014

Note: Actual official high and low records may vary slightly from our data, if they occured in-between our weather recording intervals... More about our weather records

Advertising

Rodez weather history for previous 24 hours

 ConditionsComfort  
Time TempWeatherWind HumidityBarometerVisibility
10:30 PM
Sep 30
61 °FClear.2 mph94%30.33 "HgN/A
10:00 PM59 °FClear.No wind94%30.33 "HgN/A
9:30 PM59 °FClear.2 mph94%30.33 "HgN/A
9:00 PM61 °FCool.No wind88%30.33 "HgN/A
8:30 PM61 °FCool.No wind94%30.33 "Hg6 mi
8:00 PM61 °FMostly cloudy.1 mph94%30.30 "HgN/A
7:30 PM63 °FPartly sunny.3 mph88%30.30 "HgN/A
7:00 PM63 °FBroken clouds.5 mph88%30.30 "HgN/A
6:30 PM64 °FMostly cloudy.6 mph83%30.30 "HgN/A
6:00 PM66 °FMostly cloudy.6 mph78%30.30 "HgN/A
5:30 PM66 °FClear.5 mph78%30.30 "HgN/A
5:00 PM64 °FOvercast.7 mph88%30.30 "HgN/A
4:30 PM66 °FMostly cloudy.3 mph78%30.30 "HgN/A
4:00 PM68 °FPartly sunny.3 mph73%30.30 "HgN/A
3:30 PM66 °FMostly cloudy.3 mph78%30.30 "HgN/A
3:00 PM66 °FBroken clouds.3 mph78%30.30 "HgN/A
2:30 PM64 °FBroken clouds.7 mph83%30.30 "HgN/A
2:00 PM63 °FLow clouds.5 mph88%30.33 "HgN/A
1:30 PM63 °FLight rain. Overcast.6 mph88%30.33 "Hg5 mi
1:00 PM63 °FOvercast.3 mph88%30.33 "HgN/A
12:30 PM64 °FMostly cloudy.6 mph78%30.33 "HgN/A
12:00 PM64 °FOvercast.5 mph78%30.33 "HgN/A
11:30 AM63 °FOvercast.5 mph83%30.33 "HgN/A
11:00 AM61 °FOvercast.6 mph88%30.33 "HgN/A
10:30 AM61 °FLight rain. Low clouds.5 mph88%30.33 "Hg4 mi
10:00 AM61 °FMostly cloudy.3 mph94%30.33 "HgN/A
9:30 AM61 °FOvercast.2 mph88%30.30 "HgN/A
9:00 AM61 °FMostly cloudy.5 mph88%30.30 "HgN/A
8:30 AM59 °FOvercast.3 mph100%30.30 "HgN/A
8:00 AM59 °FOvercast.3 mph94%30.30 "HgN/A
7:30 AM59 °FFog.1 mph94%30.30 "Hg2 mi
7:00 AM59 °FPartly cloudy.2 mph94%30.30 "HgN/A
6:30 AM59 °FPartly cloudy.No wind94%30.27 "HgN/A
6:00 AM59 °FLight rain. Passing clouds.3 mph94%30.27 "HgN/A
5:30 AM59 °FLight rain. Fog.3 mph94%30.27 "Hg3 mi
5:00 AM59 °FRain. Fog.5 mph94%30.27 "Hg2 mi
4:30 AM59 °FRain. Fog.5 mph94%30.30 "Hg2 mi
4:00 AM61 °FDrizzle. Mostly cloudy.5 mph88%30.30 "HgN/A
3:30 AM61 °FLight rain. Overcast.7 mph88%30.30 "HgN/A
3:00 AM63 °FOvercast.8 mph77%30.30 "HgN/A
2:30 AM63 °FOvercast.8 mph77%30.30 "HgN/A
2:00 AM63 °FMostly cloudy.5 mph77%30.30 "HgN/A
1:30 AM61 °FMostly cloudy.5 mph88%30.30 "HgN/A
1:00 AM61 °FMostly cloudy.2 mph88%30.30 "HgN/A
12:30 AM63 °FClear.6 mph83%30.30 "HgN/A
12:00 AM63 °FMostly cloudy.8 mph83%30.30 "HgN/A
Weather by CustomWeather, © 2014

See weather overviewHow to use our weather pages